Voltar ao catálogo

STARLINK-2646

AtivoComunicaçõesVLEO
NORAD 48642·PAYLOAD·🇺🇸 United States

Lançado May 26, 2021 de Cape Canaveral Space Force Station

Loading…

Próximas Passagens (próximas 24 horas)

TLE

AtualizadoSource: CelesTrak SupGP

Época: Sep 14, 2026, 20:15 UTC

1 48642C 21044E   26257.84423611 -.00030207  00000+0 -97134-3 0  2573
2 48642  53.1591 313.6557 0000831  73.0494 126.6651 15.31719016    11

Acompanhe STARLINK-2646 em tempo real com AllMySat

Download on the App Store